Time,TemperatureF,DewpointF,PressureIn,WindDirection,WindDirectionDegrees,WindSpeedMPH,WindSpeedGustMPH,Humidity,HourlyPrecipIn,Conditions,Clouds,dailyrainin,SoftwareType,DateUTC
2013-02-27 00:02:00,29.0,-99.9,29.81,NNE,25,25.0,29.0,-999,-99.99,,,-99.99,,2013-02-27 06:02:00,
2013-02-27 00:33:00,29.0,-99.9,29.80,NNE,20,25.0,30.0,-999,-99.99,,,-99.99,,2013-02-27 06:33:00,
2013-02-27 01:01:00,-999.0,-99.9,-100.00,NNE,16,24.0,31.0,-999,-99.99,,,-99.99,,2013-02-27 07:01:00,
2013-02-27 01:12:00,-999.0,-99.9,29.79,NNE,16,24.0,31.0,-999,-99.99,,,-99.99,,2013-02-27 07:12:00,
2013-02-27 01:32:00,29.0,-99.9,29.78,NNE,19,27.0,32.0,-999,-99.99,,,-99.99,,2013-02-27 07:32:00,
2013-02-27 02:12:00,-999.0,-99.9,-100.00,NNE,19,28.0,34.0,-999,-99.99,,,-99.99,,2013-02-27 08:12:00,
2013-02-27 02:22:00,-999.0,-99.9,29.77,NNE,19,28.0,34.0,-999,-99.99,,,-99.99,,2013-02-27 08:22:00,
2013-02-27 02:32:00,-999.0,-99.9,-100.00,NNE,20,26.0,32.0,-999,-99.99,,,-99.99,,2013-02-27 08:32:00,
2013-02-27 02:42:00,-999.0,-99.9,29.76,NNE,20,26.0,32.0,-999,-99.99,,,-99.99,,2013-02-27 08:42:00,
2013-02-27 03:02:00,30.0,-99.9,29.76,NNE,18,26.0,32.0,-999,-99.99,,,-99.99,,2013-02-27 09:02:00,
2013-02-27 04:01:00,-999.0,-99.9,-100.00,NNE,18,22.0,30.0,-999,-99.99,,,-99.99,,2013-02-27 10:01:00,
2013-02-27 04:12:00,-999.0,-99.9,29.75,NNE,18,22.0,30.0,-999,-99.99,,,-99.99,,2013-02-27 10:12:00,
2013-02-27 04:32:00,28.0,-99.9,29.75,NNE,20,22.0,27.0,-999,-99.99,,,-99.99,,2013-02-27 10:32:00,
2013-02-27 05:32:00,-999.0,-99.9,-100.00,North,8,18.0,24.0,-999,-99.99,,,-99.99,,2013-02-27 11:32:00,
2013-02-27 05:42:00,-999.0,-99.9,29.75,North,8,18.0,24.0,-999,-99.99,,,-99.99,,2013-02-27 11:42:00,
2013-02-27 06:02:00,-999.0,-99.9,-100.00,North,3,18.0,23.0,-999,-99.99,,,-99.99,,2013-02-27 12:02:00,
2013-02-27 06:13:00,-999.0,-99.9,-100.00,North,3,18.0,23.0,-999,-99.99,,,-99.99,,2013-02-27 12:13:00,
2013-02-27 06:33:00,29.0,-99.9,29.74,North,360,19.0,24.0,-999,-99.99,,,-99.99,,2013-02-27 12:33:00,
2013-02-27 07:03:00,29.0,-99.9,29.74,North,2,20.0,24.0,-999,-99.99,,,-99.99,,2013-02-27 13:03:00,
2013-02-27 07:32:00,-999.0,-99.9,-100.00,North,9,19.0,26.0,-999,-99.99,,,-99.99,,2013-02-27 13:32:00,
2013-02-27 07:42:00,-999.0,-99.9,29.75,North,9,19.0,26.0,-999,-99.99,,,-99.99,,2013-02-27 13:42:00,
2013-02-27 08:02:00,29.0,-99.9,29.75,North,6,19.0,24.0,-999,-99.99,,,-99.99,,2013-02-27 14:02:00,
2013-02-27 08:42:00,-999.0,-99.9,-100.00,NNE,15,19.0,24.0,-999,-99.99,,,-99.99,,2013-02-27 14:42:00,
2013-02-27 08:53:00,-999.0,-99.9,29.74,NNE,15,19.0,24.0,-999,-99.99,,,-99.99,,2013-02-27 14:53:00,
2013-02-27 09:02:00,-999.0,-99.9,-100.00,North,3,20.0,27.0,-999,-99.99,,,-99.99,,2013-02-27 15:02:00,
2013-02-27 09:13:00,-999.0,-99.9,29.74,North,3,20.0,27.0,-999,-99.99,,,-99.99,,2013-02-27 15:13:00,
2013-02-27 09:32:00,31.0,-99.9,29.74,North,8,28.0,32.0,-999,-99.99,,,-99.99,,2013-02-27 15:32:00,
2013-02-27 10:02:00,31.0,-99.9,29.74,North,8,29.0,35.0,-999,-99.99,,,-99.99,,2013-02-27 16:02:00,
2013-02-27 10:32:00,-999.0,-99.9,-100.00,North,7,29.0,34.0,-999,-99.99,,,-99.99,,2013-02-27 16:32:00,
2013-02-27 10:42:00,-999.0,-99.9,29.74,North,7,29.0,34.0,-999,-99.99,,,-99.99,,2013-02-27 16:42:00,
2013-02-27 11:02:00,31.0,-99.9,29.74,North,8,30.0,34.0,-999,-99.99,,,-99.99,,2013-02-27 17:02:00,
2013-02-27 11:11:00,31.0,-99.9,29.74,North,8,30.0,34.0,-999,-99.99,,,-99.99,,2013-02-27 17:11:00,
2013-02-27 11:32:00,31.0,-99.9,29.74,North,6,30.0,35.0,-999,-99.99,,,-99.99,,2013-02-27 17:32:00,
2013-02-27 12:02:00,-999.0,-99.9,-100.00,North,9,27.0,32.0,-999,-99.99,,,-99.99,,2013-02-27 18:02:00,
2013-02-27 12:11:00,-999.0,-99.9,29.74,North,9,27.0,32.0,-999,-99.99,,,-99.99,,2013-02-27 18:11:00,
2013-02-27 12:32:00,31.0,-99.9,29.74,North,10,26.0,31.0,-999,-99.99,,,-99.99,,2013-02-27 18:32:00,
2013-02-27 13:12:00,-999.0,-99.9,-100.00,North,7,21.0,27.0,-999,-99.99,,,-99.99,,2013-02-27 19:12:00,
2013-02-27 13:22:00,-999.0,-99.9,29.74,North,7,21.0,27.0,-999,-99.99,,,-99.99,,2013-02-27 19:22:00,
2013-02-27 13:33:00,-999.0,-99.9,-100.00,North,9,19.0,24.0,-999,-99.99,,,-99.99,,2013-02-27 19:33:00,
2013-02-27 13:42:00,32.0,-99.9,29.73,North,9,19.0,24.0,-999,-99.99,,,-99.99,,2013-02-27 19:42:00,
2013-02-27 13:52:00,32.0,-99.9,29.73,North,-999,-999.0,-999.0,-999,-99.99,,,-99.99,,2013-02-27 19:52:00,
2013-02-27 14:02:00,32.0,-99.9,29.73,North,358,20.0,23.0,-999,-99.99,,,-99.99,,2013-02-27 20:02:00,
2013-02-27 14:12:00,32.0,-99.9,29.74,North,-999,-999.0,-999.0,-999,-99.99,,,-99.99,,2013-02-27 20:12:00,
2013-02-27 14:22:00,33.0,-99.9,29.74,North,-999,-999.0,-999.0,-999,-99.99,,,-99.99,,2013-02-27 20:22:00,
2013-02-27 14:32:00,32.0,-99.9,29.74,North,-999,-999.0,-999.0,-999,-99.99,,,-99.99,,2013-02-27 20:32:00,
2013-02-27 14:42:00,33.0,-99.9,29.74,North,-999,-999.0,-999.0,-999,-99.99,,,-99.99,,2013-02-27 20:42:00,
2013-02-27 14:53:00,33.0,-99.9,29.74,North,-999,-999.0,-999.0,-999,-99.99,,,-99.99,,2013-02-27 20:53:00,
2013-02-27 15:02:00,-999.0,-99.9,-100.00,North,355,20.0,23.0,-999,-99.99,,,-99.99,,2013-02-27 21:02:00,
2013-02-27 15:11:00,33.0,-99.9,29.74,North,355,20.0,23.0,-999,-99.99,,,-99.99,,2013-02-27 21:11:00,
2013-02-27 15:22:00,33.0,-99.9,29.74,North,-999,-999.0,-999.0,-999,-99.99,,,-99.99,,2013-02-27 21:22:00,
2013-02-27 15:32:00,33.0,-99.9,29.74,North,350,17.0,21.0,-999,-99.99,,,-99.99,,2013-02-27 21:32:00,
2013-02-27 15:42:00,33.0,-99.9,29.75,North,-999,-999.0,-999.0,-999,-99.99,,,-99.99,,2013-02-27 21:42:00,
2013-02-27 15:52:00,33.0,-99.9,29.75,North,-999,-999.0,-999.0,-999,-99.99,,,-99.99,,2013-02-27 21:52:00,
2013-02-27 16:02:00,33.0,-99.9,29.75,North,-999,-999.0,-999.0,-999,-99.99,,,-99.99,,2013-02-27 22:02:00,
2013-02-27 16:12:00,32.0,-99.9,29.75,North,-999,-999.0,-999.0,-999,-99.99,,,-99.99,,2013-02-27 22:12:00,
2013-02-27 16:22:00,33.0,-99.9,29.75,North,-999,-999.0,-999.0,-999,-99.99,,,-99.99,,2013-02-27 22:22:00,
2013-02-27 16:32:00,-999.0,-99.9,-100.00,NNW,345,19.0,22.0,-999,-99.99,,,-99.99,,2013-02-27 22:32:00,
2013-02-27 16:42:00,32.0,-99.9,29.75,NNW,345,19.0,22.0,-999,-99.99,,,-99.99,,2013-02-27 22:42:00,
2013-02-27 17:02:00,-999.0,-99.9,29.76,North,351,19.0,22.0,-999,-99.99,,,-99.99,,2013-02-27 23:02:00,
2013-02-27 18:02:00,-999.0,-99.9,-100.00,North,351,19.0,22.0,-999,-99.99,,,-99.99,,2013-02-28 00:02:00,
2013-02-27 18:13:00,-999.0,-99.9,29.78,North,351,19.0,22.0,-999,-99.99,,,-99.99,,2013-02-28 00:13:00,
2013-02-27 18:32:00,32.0,-99.9,29.78,North,355,20.0,24.0,-999,-99.99,,,-99.99,,2013-02-28 00:32:00,
2013-02-27 18:42:00,32.0,-99.9,29.79,North,-999,-999.0,-999.0,-999,-99.99,,,-99.99,,2013-02-28 00:42:00,
2013-02-27 19:32:00,-999.0,-99.9,-100.00,North,354,17.0,22.0,-999,-99.99,,,-99.99,,2013-02-28 01:32:00,
2013-02-27 19:42:00,-999.0,-99.9,29.80,North,354,17.0,22.0,-999,-99.99,,,-99.99,,2013-02-28 01:42:00,
2013-02-27 19:52:00,32.0,-99.9,29.80,North,-999,-999.0,-999.0,-999,-99.99,,,-99.99,,2013-02-28 01:52:00,
2013-02-27 20:01:00,32.0,-99.9,29.80,North,351,20.0,25.0,-999,-99.99,,,-99.99,,2013-02-28 02:01:00,
2013-02-27 20:11:00,33.0,-99.9,29.80,North,-999,-999.0,-999.0,-999,-99.99,,,-99.99,,2013-02-28 02:11:00,
2013-02-27 20:22:00,33.0,-99.9,29.80,North,-999,-999.0,-999.0,-999,-99.99,,,-99.99,,2013-02-28 02:22:00,
2013-02-27 20:32:00,33.0,-99.9,29.81,North,352,22.0,26.0,-999,-99.99,,,-99.99,,2013-02-28 02:32:00,
2013-02-27 20:42:00,33.0,-99.9,29.81,North,352,22.0,26.0,-999,-99.99,,,-99.99,,2013-02-28 02:42:00,
2013-02-27 20:52:00,33.0,-99.9,29.81,North,352,22.0,26.0,-999,-99.99,,,-99.99,,2013-02-28 02:52:00,
2013-02-27 21:02:00,-999.0,-99.9,-100.00,North,349,20.0,24.0,-999,-99.99,,,-99.99,,2013-02-28 03:02:00,
2013-02-27 21:11:00,32.0,-99.9,29.82,North,349,20.0,24.0,-999,-99.99,,,-99.99,,2013-02-28 03:11:00,
2013-02-27 21:22:00,32.0,-99.9,29.81,North,-999,-999.0,-999.0,-999,-99.99,,,-99.99,,2013-02-28 03:22:00,
2013-02-27 21:32:00,-999.0,-99.9,-100.00,North,349,22.0,26.0,-999,-99.99,,,-99.99,,2013-02-28 03:32:00,
2013-02-27 21:42:00,33.0,-99.9,29.82,North,349,22.0,26.0,-999,-99.99,,,-99.99,,2013-02-28 03:42:00,
2013-02-27 21:52:00,33.0,-99.9,29.82,North,-999,-999.0,-999.0,-999,-99.99,,,-99.99,,2013-02-28 03:52:00,
2013-02-27 22:02:00,33.0,-99.9,29.82,North,-999,-999.0,-999.0,-999,-99.99,,,-99.99,,2013-02-28 04:02:00,
2013-02-27 22:11:00,33.0,-99.9,29.82,North,-999,-999.0,-999.0,-999,-99.99,,,-99.99,,2013-02-28 04:11:00,
2013-02-27 22:22:00,33.0,-99.9,29.82,North,-999,-999.0,-999.0,-999,-99.99,,,-99.99,,2013-02-28 04:22:00,
2013-02-27 22:32:00,-999.0,-99.9,-100.00,NNW,348,21.0,25.0,-999,-99.99,,,-99.99,,2013-02-28 04:32:00,
2013-02-27 22:42:00,33.0,-99.9,29.82,NNW,348,21.0,25.0,-999,-99.99,,,-99.99,,2013-02-28 04:42:00,
2013-02-27 22:52:00,33.0,-99.9,29.82,North,-999,-999.0,-999.0,-999,-99.99,,,-99.99,,2013-02-28 04:52:00,
2013-02-27 23:02:00,-999.0,-99.9,-100.00,NNW,341,23.0,28.0,-999,-99.99,,,-99.99,,2013-02-28 05:02:00,
2013-02-27 23:11:00,33.0,-99.9,29.82,NNW,341,23.0,28.0,-999,-99.99,,,-99.99,,2013-02-28 05:11:00,
2013-02-27 23:22:00,33.0,-99.9,29.82,North,-999,-999.0,-999.0,-999,-99.99,,,-99.99,,2013-02-28 05:22:00,
2013-02-27 23:32:00,33.0,-99.9,29.82,NNW,342,20.0,25.0,-999,-99.99,,,-99.99,,2013-02-28 05:32:00,
2013-02-27 23:43:00,33.0,-99.9,29.83,North,-999,-999.0,-999.0,-999,-99.99,,,-99.99,,2013-02-28 05:43:00,
2013-02-27 23:52:00,33.0,-99.9,29.83,North,-999,-999.0,-999.0,-999,-99.99,,,-99.99,,2013-02-28 05:52:00,